Sacramento, California
Traffic Map
Current Weather Conditions
Sacramento, California
Clear
Clear

Feels Like: 8°
Wind Chill: Ceiling: Unl
Heat Index: Visibility: 10mi
Dew Point: Wind: 0mph
Humidity: 90% Direction: ° ()
Pressure: 30.05in Gusts: 0mph
Raw Report DataKSAC 261253Z 00000KT 10SM CLR 08/07 A3005 RMK AO2 SLP174 T00830067
Traffic Incident Summary
Active as of:
Severity:
Category:
InformationThere was an issue retrieving the traffic information for this location. Please try a different location or try again shortly.
Advertisements
Track Severe Weather on mobile